Location: ????????
(55.8558°N, 38.8766°E)
Time: 11:25:12
(UTC+00:00)

Daily predictions for brighter satellites

Satellite Brightness Start Highest point End
(mag) Time Altitude Azimuth Time Altitude Azimuth Time Altitude Azimuth
NOSS 3-1 (A) 4.2 15:39:15 10° W 15:45:08 57° NNW 15:52:11 10° ENE
CENTAUR R/B 3.4 15:41:06 10° NW 15:48:52 80° SW 15:57:35 10° SE
Cosmos 1092 Rocket 4.5 15:44:26 10° N 15:50:14 40° ENE 15:56:01 10° SE
PSLV R/B 4.0 15:47:44 10° NNE 15:51:57 80° ESE 15:56:10 10° SSW
ISS -2.6 15:49:56 10° SW 15:52:58 31° SSE 15:56:01 10° E
Cosmos 1464 Rocket 4.1 15:47:36 10° SSE 15:53:32 53° E 15:59:34 10° NNE
NOSS 2-2 (E) 3.3 15:50:42 10° SW 15:54:16 65° SE 15:58:36 10° NE
Abrixas rocket 4.4 15:55:05 10° SW 15:56:42 14° SSW 15:58:19 10° SSE
Lacrosse 5 rocket 1.6 15:54:46 10° W 15:59:04 75° N 16:03:37 10° E
Cosmos 1898 Rocket 4.1 15:54:44 10° SW 15:59:51 61° WNW 16:05:03 10° NNE
Cosmos 1782 Rocket 4.0 15:56:36 10° SSW 16:01:03 72° WNW 16:05:32 10° N
GP-B 4.3 15:57:22 10° N 16:01:40 48° W 16:05:56 10° SSW
ATLAS 3B R/B 2.8 15:55:40 10° NW 16:02:25 68° NNE 16:09:26 10° ESE
Cosmos 2263 Rocket 2.6 15:57:12 10° SW 16:02:46 68° NW 16:08:24 10° NNE
NOSS 2-2 (D) 3.2 16:00:48 10° SW 16:04:21 64° SE 16:08:35 10° NE
ATLAS 2AS CENTAUR R/B 3.9 15:59:08 10° SSE 16:05:20 26° ESE 16:11:30 10° ENE
COSMOS 2406 3.4 16:01:12 10° NNW 16:06:48 56° NE 16:12:24 10° SE
Cosmos 1844 Rocket 3.0 16:01:39 10° S 16:06:53 43° ESE 16:12:10 10° NE
Okean-O 3.6 16:03:07 10° S 16:07:27 51° W 16:11:48 10° NNW
Iridium 4 Rocket 4.3 16:02:28 10° SSW 16:07:48 63° W 16:13:33 10° N
Cosmos 1626 3.2 16:04:41 10° N 16:07:55 27° ENE 16:11:07 10° SE
Cosmos 1805 4.3 16:05:04 10° SE 16:08:16 24° E 16:11:27 10° NE
KORONAS-FOTON 3.9 16:07:23 10° N 16:11:18 57° ENE 16:15:10 10° SSE
Cosmos 2278 Rocket 3.7 16:11:32 10° ESE 16:14:08 13° E 16:16:44 10° ENE
Cosmos 2298 Rocket 4.1 16:09:38 10° S 16:14:52 60° ESE 16:20:08 10° NNE
Cosmos 1707 3.8 16:11:24 10° NNW 16:15:08 48° W 16:18:50 10° S
Cosmos 1844 4.0 16:12:02 10° S 16:17:20 42° ESE 16:22:37 10° NE
Cosmos 1937 Rocket 4.2 16:13:24 10° SW 16:18:34 59° NW 16:23:43 10° NNE
SJ-11-01 4.4 16:14:04 10° SSE 16:18:47 82° WSW 16:23:30 10° NNW
FREGAT/IRIS 3.4 16:17:39 15° ESE 16:19:08 25° ENE 16:21:22 10° N
Cosmos 1891 Rocket 4.4 16:13:24 10° S 16:19:28 79° E 16:25:31 10° NNE
Meteor 1-24 Rocket 4.0 16:16:15 10° N 16:21:38 48° ENE 16:27:10 10° SE
Meteor 2-5 Rocket 3.8 16:17:15 10° N 16:22:52 60° ENE 16:28:34 10° SSE
NOSS 3-1 (C) 4.5 16:16:56 10° W 16:22:56 46° N 16:30:06 10° ENE
Cosmos 2151 Rocket 3.6 16:20:15 10° S 16:24:41 65° E 16:29:11 10° NNE
Cosmos 1833 Rocket 2.9 16:21:49 10° NNW 16:27:26 58° NE 16:32:23 13° SE
COSMO-SKYMED 1 3.6 16:24:02 10° N 16:28:16 50° WNW 16:32:27 10° SW
Nadezhda 4 Rocket 4.0 16:23:52 10° NNW 16:30:02 85° W 16:36:10 10° S
IRS-1A Rocket 4.4 16:24:33 10° SSE 16:30:22 66° ENE 16:36:07 10° NNW
MOS 1 Rocket 3.1 16:27:32 10° NNE 16:31:54 56° E 16:36:07 10° S
Cosmos 1125 Rocket 3.6 16:27:15 10° S 16:32:25 54° ESE 16:37:37 10° NE
SPOT 3 Rocket 4.2 16:28:49 13° ESE 16:32:52 37° ENE 16:37:36 10° N
USA 116 3.5 16:29:33 10° NNE 16:33:09 85° ESE 16:37:11 10° SSW
Meteor 1-12 Rocket 4.3 16:28:06 10° SSW 16:33:57 88° WNW 16:39:44 10° NNE
CSL-04 Rocket 4.3 16:30:09 10° S 16:35:34 60° WSW 16:41:05 10° NNW
SJ 16-02 4.0 16:32:57 10° W 16:36:16 21° NW 16:39:36 10° N
ATLAS CENTAUR R/B 3.1 16:35:05 10° NW 16:38:00 21° N 16:40:52 10° NE
SL-14 R/B 3.5 16:35:53 10° N 16:39:44 48° ENE 16:42:51 15° SE
Cosmos 2150 Rocket 4.1 16:36:37 10° SSW 16:42:03 84° ESE 16:47:34 10° NNE
Lacrosse 4 Rocket 1.6 16:38:27 10° NW 16:42:27 52° NE 16:44:52 22° ESE
Cosmos 2227 Rocket 4.4 16:38:51 10° WNW 16:43:01 20° NNW 16:47:12 10° NNE
Okean 1-7 Rocket 4.3 16:41:56 10° N 16:46:13 37° ENE 16:48:42 21° ESE
Meteor 2-13 Rocket 4.5 16:41:39 10° NNW 16:47:52 90° ENE 16:54:02 10° S
NOSS 2-2 (C) 3.6 16:45:30 10° WSW 16:49:09 69° NNW 16:53:37 10° NE
Cosmos 1455 Rocket 4.2 16:49:22 22° E 16:49:48 22° E 16:53:10 10° NE
SL-08 RB Rocket 3.7 16:45:32 10° SSE 16:50:06 83° WSW 16:54:39 10° NNW
CZ-2C R/B 4.4 16:45:29 10° S 16:50:43 45° W 16:56:14 10° NNW
Cosmos 1470 4.3 16:51:34 19° ENE 16:51:34 19° ENE 16:53:46 10° NE
Cosmos 1766 3.4 16:47:24 10° S 16:51:13 50° E 16:55:05 10° NNE
Cosmos 2034 Rocket 4.1 16:48:53 10° S 16:55:15 87° W 17:01:37 10° NNE
NOSS 7 (A) 4.4 16:57:01 10° SW 17:00:03 83° SE 17:01:36 25° NE
Cosmos 1674 3.9 16:58:08 10° NNW 17:01:49 44° W 17:05:29 10° SSW
Cosmos 2098 Rocket 4.4 16:57:11 10° N 17:03:49 45° ENE 17:07:03 24° SE
Okean 1 Rocket 3.0 17:01:22 10° S 17:05:52 78° E 17:10:22 10° NNE
USA 186 2.5 17:03:50 10° S 17:07:02 53° W 17:10:18 10° NNW
Terra 3.7 17:08:27 14° ENE 17:09:27 15° NE 17:12:12 10° NNE
Spot 2 Rocket 4.4 17:07:49 25° E 17:09:31 31° ENE 17:13:57 10° N
SJ-6B 2.9 17:07:20 14° S 17:10:32 72° WSW 17:14:23 10° NNW
CZ-2C R/B 2.7 17:05:01 10° NNE 17:10:34 62° ESE 17:16:08 10° S
ARGOS 4.1 17:06:50 10° S 17:12:01 48° W 17:17:14 10° NNW
DMSP B5D2-2 4.1 17:07:10 10° NNE 17:12:24 55° E 17:17:35 10° S
IGS 5A 4.4 17:13:01 28° ENE 17:13:37 29° ENE 17:17:14 10° N
Resurs 01 Rocket 1.8 17:11:55 31° SE 17:13:43 52° ENE 17:18:03 10° N
OBJECT-B 0.7 17:13:34 41° SSE 17:14:35 80° ENE 17:17:52 10° NNW
Ariane Rocket 3.4 17:11:51 10° S 17:16:53 63° WSW 17:21:58 10° NNW
MetOp-B 4.5 17:15:17 29° ESE 17:17:35 47° ENE 17:22:43 10° N
TSX-5 4.2 17:16:56 10° SSW 17:21:03 60° ESE 17:26:24 10° NE
Cosmos 1634 Rocket 3.9 17:15:50 10° S 17:21:59 74° E 17:28:13 10° NNE
Cosmos 909 Rocket 4.0 17:15:34 10° NW 17:22:21 87° NE 17:25:47 29° SE
USA 290 3.9 17:19:46 10° N 17:22:08 22° NE 17:22:08 22° NE
Cosmos 2082 Rocket 2.1 17:16:51 10° NNW 17:22:32 79° NE 17:25:20 31° SE
H-2A R/B 3.9 17:19:38 10° SSW 17:24:05 31° W 17:28:41 10° NNW
CZ-2C R/B 4.2 17:22:54 10° NNE 17:27:00 38° E 17:27:00 38° E
Cosmos 407 Rocket 4.3 17:22:33 10° NNW 17:27:19 36° NE 17:28:46 30° E
Cosmos 1733 3.2 17:23:57 10° SSW 17:27:47 80° WNW 17:31:38 10° N
ARIANE 5 R/B 3.0 17:28:17 40° E 17:29:01 44° ENE 17:33:09 10° N
ISS -3.0 17:26:13 10° WSW 17:29:12 39° SSW 17:29:12 39° SSW
Cosmos 1892 Rocket 3.6 17:25:09 10° NNW 17:29:30 79° W 17:31:57 26° S
Cosmos 2297 Rocket 4.5 17:26:12 10° NW 17:29:58 18° N 17:33:45 10° NE
Cosmos 1461 3.4 17:26:04 10° NW 17:30:48 60° NE 17:32:16 41° E
Cosmos 2084 4.2 17:28:08 10° NW 17:32:28 46° NNE 17:33:53 34° ENE
NOSS 3-4 (A) 3.4 17:26:37 10° SSW 17:32:28 60° SE 17:38:50 10° NE
NOSS 3-4 (C) 3.4 17:26:44 10° SSW 17:32:35 59° SE 17:38:56 10° NE
Cosmos 1655 Rocket 4.0 17:27:43 10° N 17:34:00 67° ENE 17:37:13 30° SSE
Cosmos 2026 Rocket 4.4 17:28:09 10° NNW 17:34:27 65° W 17:40:45 10° S
Resurs 1-3 3.7 17:32:26 28° S 17:34:45 78° WSW 17:39:11 10° NNW
Cosmos 1340 Rocket 2.6 17:32:16 20° S 17:34:56 81° ESE 17:39:00 10° NNE
Cosmos 1758 4.1 17:37:43 36° ENE 17:37:43 36° ENE 17:40:37 10° NNE
SPOT 1/Viking Rocket 4.0 17:37:02 38° E 17:38:11 44° ENE 17:43:05 10° N
Lacrosse 5 rocket 1.5 17:33:59 10° WNW 17:38:23 74° SSW 17:39:23 52° SE
Cosmos 1626 3.6 17:39:50 10° NNW 17:43:14 35° W 17:45:53 15° SSW
Cosmos 1544 Rocket 4.1 17:44:02 40° ENE 17:44:02 40° ENE 17:47:22 10° NNE
Cosmos 614 Rocket 4.1 17:38:27 10° NNW 17:43:34 57° NE 17:44:45 46° ESE
Cosmos 2285 Rocket 4.2 17:37:30 10° SW 17:43:49 72° WNW 17:50:14 10° NNE
Cosmos 1805 4.5 17:40:18 10° SW 17:44:03 43° WNW 17:47:49 10° N
Cosmos 2263 Rocket 4.3 17:43:07 10° W 17:47:43 25° NNW 17:52:21 10° NNE
Exosat Rocket 3.8 17:45:38 10° SW 17:50:41 66° NW 17:55:54 10° NNE
Cosmos 1844 Rocket 3.5 17:45:20 10° WSW 17:50:46 50° NW 17:56:16 10° NNE
COSMOS 2406 4.3 17:45:46 10° NW 17:51:00 39° WSW 17:54:58 16° S
ATLAS 3B R/B 3.4 17:46:31 10° NW 17:53:02 48° SW 17:56:57 25° S
Landsat 7 3.8 17:53:32 57° ESE 17:54:12 65° ENE 17:58:57 10° N
ATLAS 2AS CENTAUR R/B 2.9 17:47:25 10° SW 17:55:22 73° SE 18:03:08 10° NE
Cosmos 2278 Rocket 2.1 17:51:33 10° SSW 17:57:06 61° ESE 18:02:42 10° NE
Cosmos 2180 Rocket 4.4 17:53:39 27° S 17:57:12 70° E 18:03:34 10° NNE
Cosmos 2279 Rocket 3.9 17:51:27 12° S 17:57:20 83° E 18:03:38 10° NNE
ERS-1 Rocket 3.4 17:57:42 42° ENE 17:58:02 43° ENE 18:02:48 10° N
Cosmos 2251 Rocket 3.7 17:52:46 10° NNW 17:58:08 69° WSW 18:00:01 40° S
Cosmos 1844 4.5 17:55:55 10° WSW 18:01:26 52° NW 18:06:57 10° NNE
Cosmos 1809 Rocket 4.4 17:56:29 10° N 18:02:40 65° ENE 18:04:14 49° SE
SPOT 5 3.5 18:03:54 44° ENE 18:04:19 45° ENE 18:09:25 10° N
Uosat 12 SS-18 rocket 4.2 18:03:39 10° NW 18:08:00 66° NE 18:08:16 65° ENE
Cosmos 1602 Rocket 3.5 18:04:18 10° N 18:08:35 75° NE 18:08:35 75° NE
Cosmos 1833 Rocket 3.9 18:06:04 10° NW 18:11:12 36° WSW 18:14:06 22° SSW
SPOT 3 Rocket 4.4 18:09:29 25° SSW 18:12:13 47° W 18:17:13 10° NNW
Cosmos 1726 4.0 18:14:40 22° NNE 18:14:40 22° NNE 18:16:06 10° NNE
Cosmos 1190 Rocket 4.1 18:08:55 10° NNW 18:14:08 59° NE 18:14:29 57° ENE
NOSS 3-1 (C) 4.3 18:08:25 10° WNW 18:15:02 55° NNE 18:18:28 33° E
Cosmos 1703 4.2 18:13:14 10° N 18:15:56 40° NNE 18:15:56 40° NNE
ATLAS CENTAUR R/B 2.6 18:14:31 10° NW 18:17:27 29° N 18:17:27 29° N
Cosmos 1626 Rocket 3.7 18:15:29 10° NNW 18:19:56 70° W 18:20:08 68° WSW
Lacrosse 4 Rocket 2.8 18:17:23 10° NW 18:20:58 30° WSW 18:21:10 29° WSW
Meteor 2-14 Rocket 4.4 18:16:04 10° N 18:22:15 73° ENE 18:23:14 61° SE
Cosmos 1470 3.5 18:26:52 51° WNW 18:26:52 51° WNW 18:30:28 10° N
Cosmos 1455 Rocket 3.6 18:26:27 47° WSW 18:27:18 57° WNW 18:31:38 10° N
Meteor 2-10 4.0 18:27:04 69° S 18:27:46 86° ESE 18:33:07 10° NNE
Cosmos 2227 Rocket 4.4 18:25:23 10° NNW 18:29:14 18° N 18:33:06 10° NE
Cosmos 2266 Rocket 4.2 18:32:21 10° NNW 18:38:20 64° W 18:40:03 45° SSW
Meteor 2-16 Rocket 4.3 18:32:53 10° N 18:39:01 68° ENE 18:39:18 67° E
Aureole 1 Rocket 3.9 18:37:41 10° NNW 18:42:07 47° NNE 18:42:07 47° NNE
Cosmos 1023 Rocket 4.5 18:40:07 10° NNW 18:44:52 77° NNW 18:44:52 77° NNW
Terra 2.3 18:47:20 52° NNE 18:47:20 52° NNE 18:51:09 10° NNW
OBJECT-B 3.9 18:46:45 10° W 18:47:26 11° W 18:48:19 10° WNW
Spot 2 Rocket 3.8 18:48:01 55° WSW 18:48:17 56° WSW 18:53:17 10° NNW
Resurs 01 Rocket 3.4 18:49:30 24° WSW 18:50:28 26° W 18:54:15 10° NW
CZ-2C R/B 4.4 18:45:43 10° N 18:50:36 33° WNW 18:55:31 10° WSW
Cosmos 1953 4.1 18:54:02 29° N 18:54:02 29° N 18:56:05 10° N
Meteor 1-11 4.2 18:55:07 10° NNW 19:00:27 80° NW 19:00:27 80° NW
Cosmos 1140 Rocket 3.8 18:56:49 10° NNW 19:01:18 63° WNW 19:01:18 63° WNW
Meteor 1-16 Rocket 4.2 19:02:58 86° NNW 19:02:58 86° NNW 19:08:47 10° NNE
ARIANE 5 R/B 4.2 19:05:50 29° W 19:05:50 29° W 19:09:28 10° NNW
Cosmos 2082 Rocket 3.7 19:01:34 10° NW 19:06:05 25° WSW 19:07:11 24° WSW
Cosmos 407 Rocket 4.1 19:04:32 10° NW 19:08:58 50° W 19:08:58 50° W
Nadezhda 2 Rocket 4.4 19:06:20 10° NNW 19:12:31 76° W 19:12:39 76° WSW
Cosmos 2297 Rocket 4.0 19:11:37 10° NNW 19:16:07 23° NNE 19:17:44 21° NE
USA 229 DEB 3.9 19:09:52 10° NW 19:16:57 70° NNE 19:17:57 62° ENE
USA 229 3.9 19:09:57 10° NW 19:17:02 70° NNE 19:18:03 62° ENE
Lacrosse 5 rocket 3.8 19:13:23 10° W 19:15:00 19° W 19:15:00 19° W
NOSS 3-4 (A) 4.0 19:17:28 10° WSW 19:23:30 58° NNW 19:30:09 10° NE
NOSS 3-4 (C) 4.0 19:17:34 10° WSW 19:23:36 58° NNW 19:30:16 10° NE
Cosmos 1553 Rocket 4.4 19:26:51 53° NE 19:26:51 53° NE 19:31:59 10° NNE
Cosmos 2369 Rocket 4.3 19:31:50 16° NE 19:31:50 16° NE 19:32:59 10° NE
NOSS 3-1 (A) 4.0 19:22:16 10° NW 19:29:10 69° NNE 19:30:16 61° ENE
COSMOS 2455 3.4 19:34:53 50° NNE 19:34:53 50° NNE 19:39:21 10° NE
ERS-1 Rocket 4.2 19:37:42 36° WNW 19:37:42 36° WNW 19:41:39 10° NNW
Cosmos 1745 Rocket 4.1 19:33:27 10° N 19:38:47 68° N 19:38:47 68° N
Cosmos 2278 Rocket 3.4 19:36:12 10° WSW 19:41:31 40° NW 19:46:51 10° NNE
SPOT 5 4.2 19:43:08 39° WNW 19:43:08 39° WNW 19:47:31 10° NNW
CZ-4C R/B 3.8 19:47:13 28° NE 19:47:13 28° NE 19:50:19 10° NE
ATLAS 2AS CENTAUR R/B 3.5 19:38:57 10° W 19:46:49 58° NNW 19:54:23 10° ENE
ATLAS CENTAUR R/B 4.3 19:53:21 10° NW 19:53:36 12° NW 19:53:36 12° NW
NOSS 3-1 (C) 3.9 19:59:19 10° NW 20:05:51 73° W 20:05:51 73° W
MOS 1-B Rocket 4.4 19:59:28 10° NNE 20:06:36 89° WNW 20:06:37 89° W
Cosmos 1709 Rocket 4.4 20:07:28 10° NNW 20:12:22 59° N 20:12:22 59° N
Cosmos 2227 Rocket 3.5 20:10:00 10° NNW 20:14:53 33° NNE 20:14:53 33° NNE
Cosmos 1943 Rocket 3.6 20:23:38 32° NNE 20:23:38 32° NNE 20:26:32 10° NNE
Terra 4.0 20:26:14 20° WNW 20:26:14 20° WNW 20:28:25 10° NW
Cosmos 2219 4.3 20:33:38 10° NNW 20:37:52 41° N 20:37:52 41° N
SL-16 R/B 4.2 20:51:50 22° ENE 20:53:10 24° NE 20:57:54 10° N
Cosmos 2297 Rocket 3.4 20:55:44 10° NNW 20:59:31 40° N 20:59:31 40° N
Cosmos 2369 Rocket 3.4 21:13:37 39° N 21:13:37 39° N 21:17:19 10° NNE
Cosmos 2263 Rocket 4.1 21:15:01 10° NNW 21:19:38 25° NNE 21:22:26 17° ENE
COSMOS 2455 4.2 21:17:59 28° WNW 21:20:03 35° NNW 21:25:33 10° NE
CZ-4C R/B 3.3 21:32:23 45° NNW 21:32:59 46° N 21:39:43 10° ENE
SJ 16-02 4.1 21:36:06 10° N 21:38:29 14° NE 21:39:09 14° NE
ATLAS 2AS CENTAUR R/B 3.7 21:31:30 10° WNW 21:39:06 48° N 21:46:17 10° ENE
Resurs 1-4 Rocket 4.4 21:37:34 10° NE 21:39:47 15° ENE 21:39:47 15° ENE
CZ-2D R/B 4.3 21:46:44 10° NE 21:49:21 18° ENE 21:49:21 18° ENE
Cosmos 2227 Rocket 3.8 21:54:03 10° NW 21:56:40 28° NW 21:56:40 28° NW
Cosmos 1943 Rocket 3.8 22:05:08 27° NW 22:05:30 28° NNW 22:10:15 10° NNE
ATLAS 5 CENTAUR R/B 3.8 22:15:53 23° NE 22:15:53 23° NE 22:17:50 10° NE
USA 234 3.6 22:06:25 10° E 22:11:26 56° ENE 22:11:26 56° ENE
ADEOS II 4.2 22:25:38 10° NE 22:29:06 17° E 22:29:28 17° E
SL-16 R/B 2.8 22:36:55 65° N 22:36:55 65° N 22:42:12 10° NNW
Cosmos 2297 Rocket 4.3 22:40:05 10° NW 22:41:17 16° NW 22:41:17 16° NW
Cosmos 1821 Rocket 4.4 22:41:47 10° N 22:47:59 56° ENE 22:48:23 55° E
Lacrosse 5 3.8 22:51:54 23° E 22:51:54 23° E 22:53:58 10° ENE
Cosmos 2369 Rocket 4.0 22:55:23 21° NW 22:56:53 23° NNW 23:01:25 10° NNE
Cosmos 1697 Rocket 3.4 23:01:48 46° E 23:01:48 46° E 23:06:22 10° NE
Cosmos 2263 Rocket 2.6 22:58:58 10° NNW 23:04:01 61° NNE 23:04:01 61° NNE
NOSS 3-4 (A) 4.0 23:00:48 10° NW 23:07:24 66° NNE 23:14:45 10° ESE
NOSS 3-4 (C) 4.0 23:00:54 10° NW 23:07:30 66° NNE 23:14:51 10° ESE
Cosmos 1818 4.1 23:08:42 58° NNE 23:08:42 58° NNE 23:13:13 10° NE
Cosmos 1844 Rocket 4.5 23:02:51 10° NNW 23:07:47 30° NNE 23:12:42 10° E
Cosmos 1980 Rocket 3.3 23:08:39 35° ESE 23:08:39 35° ESE 23:13:34 10° NE
Cosmos 1656 4.0 23:11:34 63° NE 23:11:34 63° NE 23:16:13 10° NE
SJ 16-02 3.1 23:13:47 10° NNW 23:16:05 28° N 23:16:05 28° N
SL-19 R/B 4.4 23:15:08 10° NNE 23:19:30 62° N 23:19:30 62° N
ATLAS CENTAUR R/B 4.1 23:02:26 10° W 23:20:45 83° N 23:27:04 10° E
Resurs 1-4 Rocket 2.3 23:16:12 10° NNE 23:20:51 67° NE 23:20:51 67° NE
CZ-4C R/B 3.5 23:17:32 15° WNW 23:22:44 49° NNE 23:30:03 10° E
Nadezhda 3 Rocket 4.2 23:24:50 57° SE 23:25:35 62° E 23:31:40 10° NNE
ATLAS 2AS CENTAUR R/B 3.1 23:23:23 10° NW 23:31:10 71° NNE 23:38:21 10° ESE
CZ-2D R/B 2.2 23:25:53 10° NNE 23:30:39 72° NNE 23:30:39 72° NNE
SL-16 R/B 4.3 23:29:24 15° SE 23:31:42 19° E 23:35:32 10° ENE
ARIANE 5 R/B 4.2 23:28:21 10° NE 23:32:36 26° E 23:34:21 21° ESE
Cosmos 972 Rocket 4.1 23:40:35 65° ENE 23:40:35 65° ENE 23:45:15 10° NNE
H-2A R/B 4.3 23:39:28 10° ESE 23:43:07 25° ENE 23:46:48 10° N
Cosmos 990 Rocket 4.1 23:41:53 10° NNW 23:47:06 71° ENE 23:48:20 51° SE
IRS-1D 3.8 23:42:23 10° NNE 23:47:45 65° ESE 23:48:13 62° SE
Cosmos 2181 Rocket 4.4 23:48:05 45° WNW 23:48:05 45° WNW 23:53:59 10° N
CBERS-1 4.2 23:44:28 10° NNE 23:49:34 62° ESE 23:49:56 61° SE
NPP 3.5 23:49:10 10° NNE 23:54:34 75° WNW 23:54:34 75° WNW
